| time (UTC) | temp F | wind direction | speed MPH | gust MPH | rain 1hr in | rain 24hr in | rain mn in | humidity % | barometer mb |
| 20260902030016 | 62 | 130 | 0.0 | 6.0 | 0.00 | 0.00 | 0.00 | 31 | 1002.1 |
| 20260902024516 | 63 | 128 | 1.0 | 9.0 | 0.00 | 0.00 | 0.00 | 29 | 1002.0 |
| 20260902023017 | 64 | 159 | 0.0 | 4.0 | 0.00 | 0.00 | 0.00 | 28 | 1002.0 |
| 20260902021517 | 65 | 162 | 0.0 | 7.0 | 0.00 | 0.00 | 0.00 | 27 | 1002.1 |
| 20260902020014 | 66 | 35 | 0.0 | 7.0 | 0.00 | 0.00 | 0.00 | 27 | 1002.0 |
| 20260902014517 | 67 | 142 | 0.0 | 9.0 | 0.00 | 0.00 | 0.00 | 24 | 1001.8 |
| 20260902013013 | 68 | 67 | 0.0 | 13.0 | 0.00 | 0.00 | 0.00 | 22 | 1001.8 |
| 20260902011512 | 69 | 46 | 1.0 | 11.0 | 0.00 | 0.00 | 0.00 | 22 | 1001.8 |
| 20260902010023 | 69 | 25 | 0.0 | 10.0 | 0.00 | 0.00 | 0.00 | 24 | 1001.9 |
| 20260902004514 | 70 | 13 | 1.0 | 8.0 | 0.00 | 0.00 | 0.00 | 24 | 1001.9 |
| 20260902003011 | 70 | 31 | 3.0 | 9.0 | 0.00 | 0.00 | 0.00 | 21 | 1001.9 |
| 20260902001510 | 71 | 36 | 2.0 | 16.0 | 0.00 | 0.00 | 0.00 | 21 | 1001.7 |
| 20260902000011 | 72 | 40 | 5.0 | 20.0 | 0.00 | 0.00 | 0.00 | 18 | 1001.4 |
| 20260901234508 | 74 | 24 | 9.0 | 16.0 | 0.00 | 0.00 | 0.00 | 17 | 1001.4 |
| 20260901233011 | 75 | 40 | 3.0 | 11.0 | 0.00 | 0.00 | 0.00 | 19 | 1001.5 |
| 20260901231507 | 75 | 341 | 5.0 | 10.0 | 0.00 | 0.00 | 0.00 | 19 | 1001.2 |
| 20260901230009 | 75 | 58 | 5.0 | 13.0 | 0.00 | 0.00 | 0.00 | 17 | 1001.2 |
| 20260901224506 | 75 | 30 | 0.0 | 5.0 | 0.00 | 0.00 | 0.00 | 19 | 1001.1 |
| 20260901223006 | 76 | 28 | 1.0 | 9.0 | 0.00 | 0.00 | 0.00 | 18 | 1001.0 |
| 20260901221505 | 77 | 53 | 2.0 | 8.0 | 0.00 | 0.00 | 0.00 | 20 | 1001.0 |
| 20260901220010 | 77 | 43 | 3.0 | 13.0 | 0.00 | 0.00 | 0.00 | 18 | 1001.0 |
| 20260901214508 | 78 | 186 | 2.0 | 11.0 | 0.00 | 0.00 | 0.00 | 17 | 1000.9 |
| 20260901213002 | 77 | 44 | 0.0 | 12.0 | 0.00 | 0.00 | 0.00 | 22 | 1000.8 |
| 20260901211502 | 77 | 14 | 4.0 | 10.0 | 0.00 | 0.00 | 0.00 | 19 | 1000.9 |
| 20260901210059 | 76 | 355 | 5.0 | 13.0 | 0.00 | 0.00 | 0.00 | 18 | 1001.1 |
| 20260901204558 | 76 | 344 | 6.0 | 17.0 | 0.00 | 0.00 | 0.00 | 19 | 1001.2 |
| 20260901203118 | 75 | 355 | 8.0 | 17.0 | 0.00 | 0.00 | 0.00 | 19 | 1001.4 |
| 20260901201601 | 75 | 40 | 8.0 | 16.0 | 0.00 | 0.00 | 0.00 | 18 | 1001.4 |
| 20260901200055 | 76 | 34 | 7.0 | 13.0 | 0.00 | 0.00 | 0.00 | 18 | 1001.3 |
| 20260901194603 | 76 | 336 | 7.0 | 17.0 | 0.00 | 0.00 | 0.00 | 18 | 1001.3 |
| 20260901193056 | 76 | 329 | 5.0 | 16.0 | 0.00 | 0.00 | 0.00 | 20 | 1001.4 |
| 20260901191610 | 77 | 349 | 5.0 | 14.0 | 0.00 | 0.00 | 0.00 | 19 | 1001.6 |
| 20260901190050 | 76 | 250 | 2.0 | 8.0 | 0.00 | 0.00 | 0.00 | 20 | 1001.9 |
| 20260901184548 | 76 | 232 | 3.0 | 7.0 | 0.00 | 0.00 | 0.00 | 22 | 1001.9 |
| 20260901183051 | 75 | 232 | 0.0 | 5.0 | 0.00 | 0.00 | 0.00 | 29 | 1001.9 |
| 20260901181543 | 74 | 232 | 0.0 | 4.0 | 0.00 | 0.00 | 0.00 | 28 | 1002.0 |
| 20260901180038 | 72 | 232 | 3.0 | 7.0 | 0.00 | 0.00 | 0.00 | 29 | 1002.1 |
| 20260901174535 | 72 | 252 | 3.0 | 6.0 | 0.00 | 0.00 | 0.00 | 31 | 1002.0 |
| 20260901173032 | 71 | 252 | 2.0 | 9.0 | 0.00 | 0.00 | 0.00 | 32 | 1002.0 |
| 20260901171528 | 70 | 248 | 3.0 | 6.0 | 0.00 | 0.00 | 0.00 | 32 | 1002.0 |
| 20260901170025 | 69 | 248 | 2.0 | 8.0 | 0.00 | 0.00 | 0.00 | 33 | 1002.0 |
| 20260901164521 | 67 | 236 | 2.0 | 7.0 | 0.00 | 0.00 | 0.00 | 34 | 1002.2 |
| 20260901163018 | 66 | 237 | 0.0 | 5.0 | 0.00 | 0.00 | 0.00 | 37 | 1002.1 |
| 20260901161515 | 65 | 237 | 1.0 | 6.0 | 0.00 | 0.00 | 0.00 | 37 | 1002.1 |
| 20260901160015 | 65 | 237 | 0.0 | 5.0 | 0.00 | 0.00 | 0.00 | 39 | 1002.1 |
| 20260901154513 | 65 | 237 | 0.0 | 4.0 | 0.00 | 0.00 | 0.00 | 40 | 1002.3 |
| 20260901153009 | 64 | 237 | 0.0 | 3.0 | 0.00 | 0.00 | 0.00 | 44 | 1002.4 |
| 20260901151502 | 62 | 237 | 0.0 | 6.0 | 0.00 | 0.00 | 0.00 | 46 | 1002.5 |
| 20260901150058 | 60 | 146 | 0.0 | 0.0 | 0.00 | 0.00 | 0.00 | 47 | 1002.3 |
| 20260901144554 | 58 | 146 | 0.0 | 2.0 | 0.00 | 0.00 | 0.00 | 48 | 1002.4 |
| 20260901143052 | 56 | 146 | 0.0 | 1.0 | 0.00 | 0.00 | 0.00 | 49 | 1002.4 |
| 20260901141553 | 56 | 176 | 2.0 | 6.0 | 0.00 | 0.00 | 0.00 | 45 | 1002.2 |
| 20260901140048 | 54 | 176 | 5.0 | 7.0 | 0.00 | 0.00 | 0.00 | 46 | 1002.2 |
| 20260901134543 | 54 | 177 | 0.0 | 1.0 | 0.00 | 0.00 | 0.00 | 48 | 1002.1 |
| 20260901133039 | 54 | 178 | 5.0 | 7.0 | 0.00 | 0.00 | 0.00 | 47 | 1001.9 |
| 20260901131538 | 54 | 178 | 3.0 | 6.0 | 0.00 | 0.00 | 0.00 | 48 | 1001.8 |
| 20260901130035 | 54 | 178 | 1.0 | 9.0 | 0.00 | 0.00 | 0.00 | 47 | 1001.8 |
| 20260901124534 | 56 | 190 | 2.0 | 6.0 | 0.00 | 0.00 | 0.00 | 45 | 1001.6 |
| 20260901123039 | 56 | 191 | 2.0 | 4.0 | 0.00 | 0.00 | 0.00 | 45 | 1001.7 |
| 20260901121532 | 56 | 192 | 5.0 | 8.0 | 0.00 | 0.00 | 0.00 | 45 | 1001.5 |
| 20260901120025 | 57 | 360 | 0.0 | 0.0 | 0.00 | 0.00 | 0.00 | 43 | 1001.6 |
| 20260901114522 | 57 | 360 | 0.0 | 0.0 | 0.00 | 0.00 | 0.00 | 42 | 1001.4 |
| 20260901113023 | 58 | 360 | 0.0 | 0.0 | 0.00 | 0.00 | 0.00 | 41 | 1001.3 |
| 20260901111521 | 58 | 360 | 0.0 | 0.0 | 0.00 | 0.00 | 0.00 | 42 | 1001.3 |
| 20260901110022 | 58 | 360 | 0.0 | 0.0 | 0.00 | 0.00 | 0.00 | 42 | 1001.2 |
| 20260901104527 | 58 | 360 | 0.0 | 0.0 | 0.00 | 0.00 | 0.00 | 44 | 1001.2 |
| 20260901103018 | 58 | 360 | 0.0 | 3.0 | 0.00 | 0.00 | 0.00 | 43 | 1001.2 |
| 20260901101515 | 59 | 360 | 4.0 | 7.0 | 0.00 | 0.00 | 0.00 | 42 | 1001.2 |
| 20260901100012 | 59 | 360 | 0.0 | 0.0 | 0.00 | 0.00 | 0.00 | 42 | 1001.3 |
| 20260901094513 | 59 | 360 | 0.0 | 0.0 | 0.00 | 0.00 | 0.00 | 42 | 1001.2 |
| 20260901093010 | 60 | 360 | 0.0 | 0.0 | 0.00 | 0.00 | 0.00 | 41 | 1001.1 |
| 20260901091510 | 60 | 360 | 0.0 | 0.0 | 0.00 | 0.00 | 0.00 | 41 | 1001.2 |
| 20260901090008 | 60 | 360 | 0.0 | 0.0 | 0.00 | 0.00 | 0.00 | 43 | 1001.2 |
| 20260901084507 | 60 | 360 | 0.0 | 0.0 | 0.00 | 0.00 | 0.00 | 42 | 1001.2 |
| 20260901083010 | 61 | 360 | 0.0 | 4.0 | 0.00 | 0.00 | 0.00 | 40 | 1001.4 |
| 20260901081504 | 61 | 360 | 3.0 | 5.0 | 0.00 | 0.00 | 0.00 | 41 | 1001.2 |
| 20260901080104 | 62 | 360 | 0.0 | 3.0 | 0.00 | 0.00 | 0.00 | 40 | 1001.3 |
| 20260901074614 | 62 | 360 | 0.0 | 0.0 | 0.00 | 0.00 | 0.00 | 39 | 1001.4 |
| 20260901073057 | 63 | 360 | 0.0 | 5.0 | 0.00 | 0.00 | 0.00 | 38 | 1001.2 |
| 20260901071554 | 63 | 360 | 0.0 | 6.0 | 0.00 | 0.00 | 0.00 | 38 | 1001.2 |
| 20260901070059 | 64 | 360 | 2.0 | 6.0 | 0.00 | 0.00 | 0.00 | 37 | 1001.3 |
| 20260901064551 | 65 | 360 | 0.0 | 4.0 | 0.00 | 0.00 | 0.00 | 37 | 1001.3 |
| 20260901063058 | 65 | 360 | 0.0 | 0.0 | 0.00 | 0.00 | 0.00 | 37 | 1001.3 |
| 20260901061551 | 66 | 360 | 0.0 | 3.0 | 0.00 | 0.00 | 0.00 | 37 | 1001.3 |
| 20260901060049 | 65 | 146 | 0.0 | 1.0 | 0.00 | 0.00 | 0.00 | 41 | 1001.3 |
| 20260901054550 | 65 | 146 | 0.0 | 1.0 | 0.00 | 0.00 | 0.00 | 41 | 1001.4 |
| 20260901053112 | 66 | 146 | 0.0 | 2.0 | 0.00 | 0.00 | 0.00 | 40 | 1001.4 |
| 20260901051606 | 67 | 146 | 0.0 | 0.0 | 0.00 | 0.00 | 0.00 | 39 | 1001.5 |
| 20260901050048 | 67 | 146 | 0.0 | 6.0 | 0.00 | 0.00 | 0.00 | 39 | 1001.4 |
| 20260901044547 | 68 | 146 | 1.0 | 8.0 | 0.00 | 0.00 | 0.00 | 37 | 1001.3 |
| 20260901043050 | 68 | 146 | 0.0 | 5.0 | 0.00 | 0.00 | 0.00 | 36 | 1001.2 |
| 20260901041558 | 69 | 145 | 2.0 | 6.0 | 0.00 | 0.00 | 0.00 | 35 | 1001.1 |
| 20260901040046 | 69 | 145 | 0.0 | 5.0 | 0.00 | 0.00 | 0.00 | 33 | 1000.9 |
| 20260901034544 | 70 | 145 | 0.0 | 5.0 | 0.00 | 0.00 | 0.00 | 33 | 1000.6 |
| 20260901033044 | 70 | 146 | 1.0 | 5.0 | 0.00 | 0.00 | 0.00 | 35 | 1000.5 |
| 20260901031554 | 71 | 148 | 2.0 | 8.0 | 0.00 | 0.00 | 0.00 | 34 | 1000.2 |